Blackwell, OK

1:28 PM CDT on March 29, 2017 (GMT -0500)
Blackwell

Weather History for KBKN - February, 2013

Change the Weather History Date:

Saturday, February 23, 2013

  Actual Average (KPNC) Record (KPNC)
Temperature  
Mean Temperature 27 °F -  
Max Temperature 39 °F 46 °F 82 °F (2017)
Min Temperature 15 °F 27 °F 3 °F (2003)
Degree Days  
Heating Degree Days 38    
Moisture  
Dew Point 21 °F    
Average Humidity 80    
Maximum Humidity 93    
Minimum Humidity 65    
Precipitation  
Precipitation 0.00 in - - ()
Sea Level Pressure  
Sea Level Pressure 30.00 in    
Wind  
Wind Speed 4 mph (SSE)    
Max Wind Speed 9 mph    
Max Gust Speed -    
Visibility 9 miles    
Events      
Averages and records for this station are not official NWS values.
T = Trace of Precipitation, MM = Missing Value Source: NWS Daily Summary

Daily Weather History Graph

Daily Weather History Graph

Search for Another Location

Airport or City:

Trip Planner

Search our weather history database for the weather conditions in past years. The results will help you decide how hot, cold, wet, or windy it might be!

Date:

Astronomy

Feb. 23, 2013 Rise Set
Actual Time 7:07 AM CST 6:18 PM CST
Civil Twilight 6:41 AM CST 6:44 PM CST
Nautical Twilight 6:11 AM CST 7:14 PM CST
Astronomical Twilight 5:41 AM CST 7:44 PM CST
Moon 4:31 PM CST (2/23) 5:28 AM CST (2/23)
Length of Visible Light 12h 02m
Length of Day
11h 10m
Waxing Gibbous, 95% of the Moon is Illuminated
Feb 23
Waxing Gibbous
Feb 25
Full
Mar 4
Last Quarter
Mar 11
New
Mar 19
First Quarter

Hourly Weather History & Observations

Time (CST) Temp. Windchill Dew Point Humidity Pressure Visibility Wind Dir Wind Speed Gust Speed Precip Events Conditions
12:15 AM 19.4 °F 14.3 °F 15.8 °F 86% 30.12 in 9.0 mi West 3.5 mph - N/A   Clear
12:35 AM 19.4 °F 14.3 °F 15.8 °F 86% 30.12 in 10.0 mi WNW 3.5 mph - N/A   Clear
12:55 AM 17.6 °F 10.7 °F 15.8 °F 93% 30.10 in 10.0 mi WNW 4.6 mph - N/A   Clear
1:15 AM 17.6 °F 10.7 °F 15.8 °F 93% 30.11 in 10.0 mi WNW 4.6 mph - N/A   Clear
1:35 AM 17.6 °F 10.7 °F 15.8 °F 93% 30.11 in 10.0 mi WNW 4.6 mph - N/A   Clear
1:55 AM 17.6 °F - 15.8 °F 93% 30.10 in 8.0 mi Calm Calm - N/A   Clear
2:15 AM 17.6 °F - 15.8 °F 93% 30.10 in 9.0 mi Calm Calm - N/A   Clear
2:35 AM 17.6 °F 10.7 °F 15.8 °F 93% 30.09 in 8.0 mi WNW 4.6 mph - N/A   Clear
2:55 AM 17.6 °F - 15.8 °F 93% 30.08 in 8.0 mi Calm Calm - N/A   Clear
3:15 AM 17.6 °F - 15.8 °F 93% 30.07 in 8.0 mi Calm Calm - N/A   Partly Cloudy
3:35 AM 17.6 °F - 15.8 °F 93% 30.05 in 7.0 mi Calm Calm - N/A   Scattered Clouds
3:55 AM 17.6 °F 12.3 °F 15.8 °F 93% 30.05 in 7.0 mi NNW 3.5 mph - N/A   Scattered Clouds
4:15 AM 17.6 °F - 14.0 °F 86% 30.05 in 7.0 mi Calm Calm - N/A   Scattered Clouds
4:35 AM 15.8 °F - 14.0 °F 93% 30.04 in 7.0 mi Calm Calm - N/A   Scattered Clouds
4:55 AM 15.8 °F - 14.0 °F 93% 30.04 in 6.0 mi Calm Calm - N/A   Mostly Cloudy
5:15 AM 15.8 °F - 14.0 °F 93% 30.03 in 7.0 mi Calm Calm - N/A   Overcast
5:35 AM 15.8 °F - 14.0 °F 93% 30.03 in 6.0 mi Calm Calm - N/A   Overcast
6:15 AM 15.8 °F - 14.0 °F 93% 30.04 in 6.0 mi Calm Calm - N/A   Mostly Cloudy
6:35 AM 15.8 °F 10.2 °F 14.0 °F 93% 30.05 in 7.0 mi SW 3.5 mph - N/A   Mostly Cloudy
6:55 AM 15.8 °F 10.2 °F 14.0 °F 93% 30.05 in 5.0 mi SW 3.5 mph - N/A   Mostly Cloudy
7:15 AM 15.8 °F 8.6 °F 14.0 °F 93% 30.05 in 3.0 mi West 4.6 mph - N/A   Partly Cloudy
7:35 AM 17.6 °F 10.7 °F 15.8 °F 93% 30.04 in 4.0 mi West 4.6 mph - N/A   Clear
7:55 AM 17.6 °F 10.7 °F 15.8 °F 93% 30.04 in 4.0 mi West 4.6 mph - N/A   Clear
8:15 AM 17.6 °F 7.3 °F 15.8 °F 93% 30.04 in 5.0 mi West 8.1 mph - N/A   Clear
8:35 AM 19.4 °F 12.8 °F 17.6 °F 93% 30.04 in 5.0 mi West 4.6 mph - N/A   Clear
8:55 AM 21.2 °F 12.6 °F 17.6 °F 86% 30.05 in 7.0 mi West 6.9 mph - N/A   Clear
9:15 AM 23.0 °F 17.0 °F 17.6 °F 80% 30.05 in 7.0 mi WNW 4.6 mph - N/A   Clear
9:35 AM 23.0 °F 17.0 °F 17.6 °F 80% 30.05 in 8.0 mi West 4.6 mph - N/A   Clear
9:55 AM 24.8 °F - 19.4 °F 80% 30.05 in 10.0 mi Calm Calm - N/A   Clear
10:15 AM 26.6 °F 22.6 °F 19.4 °F 74% 30.05 in 10.0 mi West 3.5 mph - N/A   Clear
10:35 AM 28.4 °F 22.2 °F 19.4 °F 69% 30.06 in 10.0 mi SW 5.8 mph - N/A   Partly Cloudy
10:55 AM 28.4 °F 23.3 °F 19.4 °F 69% 30.05 in 10.0 mi SW 4.6 mph - N/A   Partly Cloudy
11:15 AM 28.4 °F - 19.4 °F 69% 30.04 in 10.0 mi Calm Calm - N/A   Clear
12:15 PM 32.0 °F 26.4 °F 23.0 °F 69% 30.04 in 10.0 mi South 5.8 mph - N/A   Clear
12:35 PM 32.0 °F 24.8 °F 24.8 °F 75% 30.03 in 10.0 mi South 8.1 mph - N/A   Clear
12:55 PM 32.0 °F 25.6 °F 23.0 °F 69% 30.02 in 10.0 mi South 6.9 mph - N/A   Clear
1:15 PM 33.8 °F 28.6 °F 24.8 °F 70% 30.00 in 10.0 mi South 5.8 mph - N/A   Clear
1:35 PM 35.6 °F 30.7 °F 24.8 °F 65% 29.99 in 10.0 mi South 5.8 mph - N/A   Partly Cloudy
1:55 PM 35.6 °F 29.9 °F 26.6 °F 70% 29.99 in 10.0 mi South 6.9 mph - N/A   Mostly Cloudy
2:15 PM 35.6 °F 30.7 °F 26.6 °F 70% 29.98 in 10.0 mi SE 5.8 mph - N/A   Scattered Clouds
2:35 PM 37.4 °F 31.4 °F 26.6 °F 65% 29.96 in 10.0 mi SE 8.1 mph - N/A   Clear
2:55 PM 37.4 °F 31.4 °F 26.6 °F 65% 29.95 in 10.0 mi SE 8.1 mph - N/A   Clear
3:15 PM 37.4 °F 31.4 °F 28.4 °F 70% 29.94 in 10.0 mi ESE 8.1 mph - N/A   Clear
3:35 PM 37.4 °F 31.4 °F 28.4 °F 70% 29.93 in 10.0 mi SE 8.1 mph - N/A   Clear
3:55 PM 37.4 °F 32.1 °F 28.4 °F 70% 29.94 in 10.0 mi SE 6.9 mph - N/A   Clear
4:15 PM 39.2 °F 33.0 °F 28.4 °F 65% 29.94 in 10.0 mi SSE 9.2 mph - N/A   Clear
4:35 PM 39.2 °F 33.6 °F 28.4 °F 65% 29.93 in 10.0 mi SE 8.1 mph - N/A   Clear
4:55 PM 39.2 °F 34.2 °F 28.4 °F 65% 29.92 in 10.0 mi SE 6.9 mph - N/A   Clear
5:15 PM 39.2 °F 34.2 °F 28.4 °F 65% 29.93 in 10.0 mi SE 6.9 mph - N/A   Clear
5:35 PM 37.4 °F 31.4 °F 28.4 °F 70% 29.91 in 10.0 mi ESE 8.1 mph - N/A   Clear
5:55 PM 37.4 °F 32.1 °F 28.4 °F 70% 29.91 in 10.0 mi SE 6.9 mph - N/A   Clear
6:15 PM 37.4 °F 32.8 °F 28.4 °F 70% 29.91 in 10.0 mi ESE 5.8 mph - N/A   Clear
6:35 PM 35.6 °F 30.7 °F 26.6 °F 70% 29.91 in 10.0 mi ESE 5.8 mph - N/A   Clear
6:55 PM 35.6 °F 29.9 °F 26.6 °F 70% 29.92 in 10.0 mi SE 6.9 mph - N/A   Partly Cloudy
7:15 PM 33.8 °F 27.7 °F 26.6 °F 75% 29.92 in 10.0 mi ESE 6.9 mph - N/A   Mostly Cloudy
7:35 PM 33.8 °F 29.6 °F 24.8 °F 70% 29.92 in 10.0 mi ESE 4.6 mph - N/A   Overcast
7:55 PM 32.0 °F 27.5 °F 24.8 °F 75% 29.92 in 10.0 mi ESE 4.6 mph - N/A   Scattered Clouds
8:15 PM 32.0 °F 27.5 °F 24.8 °F 75% 29.92 in 10.0 mi ESE 4.6 mph - N/A   Scattered Clouds
8:35 PM 32.0 °F 26.4 °F 24.8 °F 75% 29.91 in 10.0 mi ESE 5.8 mph - N/A   Mostly Cloudy
8:55 PM 32.0 °F 26.4 °F 24.8 °F 75% 29.92 in 10.0 mi SE 5.8 mph - N/A   Scattered Clouds
9:15 PM 32.0 °F 27.5 °F 24.8 °F 75% 29.92 in 10.0 mi ESE 4.6 mph - N/A   Partly Cloudy
9:35 PM 30.2 °F 24.3 °F 24.8 °F 80% 29.92 in 10.0 mi ESE 5.8 mph - N/A   Scattered Clouds
9:55 PM 30.2 °F 24.3 °F 24.8 °F 80% 29.92 in 10.0 mi ESE 5.8 mph - N/A   Scattered Clouds
10:15 PM 32.0 °F 27.5 °F 26.6 °F 80% 29.93 in 10.0 mi ESE 4.6 mph - N/A   Partly Cloudy
10:35 PM 30.2 °F 23.4 °F 24.8 °F 80% 29.92 in 10.0 mi East 6.9 mph - N/A   Partly Cloudy
10:55 PM 30.2 °F 25.4 °F 24.8 °F 80% 29.93 in 10.0 mi SE 4.6 mph - N/A   Partly Cloudy
11:15 PM 30.2 °F 24.3 °F 24.8 °F 80% 29.92 in 10.0 mi ESE 5.8 mph - N/A   Scattered Clouds
11:35 PM 30.2 °F 23.4 °F 24.8 °F 80% 29.91 in 10.0 mi ESE 6.9 mph - N/A   Partly Cloudy
11:55 PM 28.4 °F 21.2 °F 24.8 °F 86% 29.90 in 10.0 mi East 6.9 mph - N/A   Partly Cloudy